CW2654 Weather Reports


time (UTC)temp
C
wind
direction
speed
KPH
gust
KPH
rain 1hr
cm
rain 24hr
cm
rain mn
cm
humidity
%
barometer
mb
20260506050112 12 286 0.0 1.6 0.00 0.00 0.00 93 1016.9
20260506044601 13 0 0.0 0.0 0.00 0.00 0.00 93 1016.8
20260506043052 13 0 0.0 0.0 0.00 0.00 0.00 92 1016.8
20260506041555 13 0 0.0 1.6 0.00 0.00 0.00 92 1016.6
20260506040100 13 0 0.0 0.0 0.00 0.00 0.00 91 1016.4
20260506034551 13 0 0.0 0.0 0.00 0.00 0.00 90 1016.3
20260506033049 13 0 0.0 0.0 0.00 0.00 0.00 90 1016.2
20260506031559 14 0 0.0 0.0 0.00 0.00 0.00 88 1015.9
20260506030111 14 0 0.0 0.0 0.00 0.00 0.00 87 1015.7
20260506024552 14 0 0.0 0.0 0.00 0.00 0.00 86 1015.8
20260506023056 14 0 0.0 0.0 0.00 0.00 0.00 86 1015.5
20260506021548 14 0 0.0 0.0 0.00 0.00 0.00 85 1015.6
20260506020051 14 0 0.0 3.2 0.00 0.00 0.00 84 1015.7
20260506014555 14 0 0.0 1.6 0.00 0.00 0.00 83 1015.6
20260506013051 15 0 0.0 3.2 0.00 0.00 0.00 84 1015.5
20260506011558 15 0 0.0 3.2 0.00 0.00 0.00 83 1015.5
20260506010058 15 0 0.0 1.6 0.00 0.00 0.00 83 1015.4
20260506004625 15 0 0.0 4.8 0.00 0.00 0.00 83 1015.5
20260506003051 15 0 0.0 4.8 0.00 0.00 0.00 84 1015.6
20260506001556 15 0 0.0 3.2 0.00 0.00 0.00 83 1015.6
20260506000054 15 0 0.0 3.2 0.00 0.00 0.00 83 1015.9
20260505234612 15 277 0.0 6.4 0.00 0.00 0.00 82 1016.0
20260505233048 15 0 0.0 3.2 0.00 0.00 0.00 80 1016.0
20260505231552 16 0 1.6 11.3 0.00 0.00 0.00 79 1016.0
20260505230052 16 261 1.6 8.0 0.00 0.00 0.00 82 1016.0
20260505224552 16 189 0.0 6.4 0.00 0.00 0.00 80 1016.2
20260505223102 16 281 1.6 4.8 0.00 0.00 0.00 80 1016.1
20260505221608 15 0 0.0 1.6 0.00 0.00 0.00 81 1016.3
20260505220124 15 0 0.0 3.2 0.00 0.00 0.00 82 1016.3
20260505214614 15 332 0.0 6.4 0.00 0.00 0.00 81 1016.2
20260505213055 15 299 0.0 11.3 0.00 0.00 0.00 81 1016.2
20260505211612 16 259 0.0 8.0 0.00 0.00 0.00 79 1016.4
20260505210054 15 0 0.0 4.8 0.00 0.00 0.00 81 1016.5
20260505204550 15 245 1.6 8.0 0.00 0.00 0.00 80 1016.6
20260505203052 15 0 0.0 1.6 0.00 0.00 0.00 84 1016.6
20260505201602 14 0 0.0 4.8 0.00 0.00 0.00 84 1016.8
20260505194604 13 0 0.0 3.2 0.00 0.00 0.00 87 1016.8
20260505193056 13 0 0.0 6.4 0.00 0.00 0.00 86 1016.8
20260505191555 13 0 0.0 3.2 0.00 0.00 0.00 86 1017.0
20260505190100 13 254 0.0 6.4 0.00 0.00 0.00 88 1016.8
20260505184556 13 240 0.0 3.2 0.00 0.00 0.00 87 1016.9
20260505183102 12 0 0.0 3.2 0.00 0.00 0.00 88 1016.9
20260505181556 12 0 0.0 1.6 0.00 0.00 0.00 89 1016.8
20260505180053 12 0 0.0 1.6 0.00 0.00 0.00 91 1016.8
20260505174553 12 0 0.0 4.8 0.00 0.00 0.00 91 1016.7
20260505173053 12 0 0.0 1.6 0.00 0.00 0.00 92 1016.7
20260505171550 11 0 0.0 4.8 0.00 0.00 0.00 93 1016.5
20260505170056 11 0 0.0 3.2 0.00 0.00 0.00 92 1016.6
20260505164609 11 0 0.0 1.6 0.00 0.00 0.00 94 1016.4
20260505163104 11 0 0.0 3.2 0.00 0.00 0.00 94 1016.4
20260505161601 11 0 0.0 6.4 0.00 0.00 0.00 95 1016.5
20260505160109 11 0 0.0 6.4 0.00 0.00 0.00 95 1016.3
20260505153110 11 0 0.0 1.6 0.00 0.00 0.00 96 1016.2
20260505151556 11 0 0.0 4.8 0.00 0.00 0.00 96 1016.0
20260505130111 10 0 0.0 4.8 0.00 0.00 0.00 94 1015.3
20260505124610 11 0 1.6 11.3 0.00 0.00 0.00 93 1015.2
20260505123108 11 0 0.0 6.4 0.00 0.00 0.00 92 1015.3
20260505121555 11 208 1.6 6.4 0.00 0.00 0.00 91 1015.2
20260505120101 11 0 0.0 8.0 0.00 0.00 0.00 91 1015.3
20260505114555 11 0 0.0 1.6 0.00 0.00 0.00 91 1015.1
20260505113056 11 0 0.0 3.2 0.00 0.00 0.00 90 1015.1
20260505111553 11 0 0.0 4.8 0.00 0.00 0.00 90 1014.9
20260505110107 11 0 0.0 3.2 0.00 0.00 0.00 90 1014.7
20260505101554 11 0 0.0 3.2 0.00 0.00 0.00 89 1014.5
20260505100053 11 0 0.0 6.4 0.00 0.00 0.00 89 1014.5
20260505094552 12 0 0.0 11.3 0.00 0.00 0.00 88 1014.5
20260505093054 12 0 0.0 16.1 0.00 0.00 0.00 88 1014.4
20260505091605 12 128 4.8 17.7 0.00 0.00 0.00 88 1014.3
20260505090051 12 136 0.0 11.3 0.00 0.00 0.00 88 1014.3
20260505084553 12 248 1.6 9.7 0.00 0.00 0.00 87 1014.2
20260505083056 12 0 0.0 8.0 0.00 0.00 0.00 86 1014.1
20260505081555 12 0 1.6 11.3 0.00 0.00 0.00 86 1014.0
20260505080106 13 124 1.6 14.5 0.00 0.00 0.00 85 1013.9
20260505074552 13 171 3.2 12.9 0.00 0.00 0.00 83 1013.9
20260505073058 14 0 0.0 11.3 0.00 0.00 0.00 82 1013.7
20260505071555 15 223 1.6 14.5 0.00 0.00 0.00 81 1013.6
20260505070101 15 0 0.0 9.7 0.00 0.00 0.00 79 1013.4
20260505064553 15 227 1.6 8.0 0.00 0.00 0.00 79 1013.1
20260505063111 16 261 0.0 11.3 0.00 0.00 0.00 80 1013.0
20260505061604 16 0 1.6 8.0 0.00 0.00 0.00 81 1012.7